EXPRESS-AMU1 (41191 NORAD) Tracking and Keplerian Element Data

This shows tracking and keplerian element data for the satellite.

Feedback or suggestion? Click here.




ElementValue
Catalog41191
NameEXPRESS-AMU1
Epoch Orbit3326
Epoch Day34.72732869
Epoch Year2025
RAAN90.1254
Inclination0.0228
Eccentricity0.0002713
Argument of Perigee211.2286
Mean Anonmoly130.7141
Mean Motion1.00269299
Decay Rate1.6E-06
L11 41191U 15082A 25034.72732869 .00000160 00000+0 00000+0 0 9995
L22 41191 0.0228 90.1254 0002713 211.2286 130.7141 1.00269299 33265



Live tracking and technical data element details for EXPRESS-AMU1 (NORAD 41191). EXPRESS-AMU1 can be tracked NOW for your location showing map with azimuth and elevation plus other details from your city location.







IsCatalogInMostPopularTable: catalog: 41191, numindb: 667
Update: records affected: 1



GetName: 41191 EXPRESS-AMU1

Hit Count: updated at: Fri, 14 Feb 2025 16:02:48 GMT